| time (UTC) | temp F | wind direction | speed knots | gust knots | rain 1hr in | rain 24hr in | rain mn in | humidity % | barometer mb |
| 20260507100503 | 51 | 58 | 1.7 | 2.6 | 0.00 | 0.01 | 0.00 | 76 | 1015.6 |
| 20260507100218 | 51 | 55 | 0.9 | 2.6 | 0.00 | 0.01 | 0.00 | 75 | 1015.6 |
| 20260507095716 | 51 | 5 | 0.0 | 2.6 | 0.00 | 0.01 | 0.00 | 75 | 1015.6 |
| 20260507095003 | 52 | 360 | 0.0 | 1.7 | 0.00 | 0.01 | 0.00 | 75 | 1015.6 |
| 20260507094503 | 52 | 359 | 0.9 | 2.6 | 0.00 | 0.01 | 0.00 | 75 | 1015.6 |
| 20260507094004 | 52 | 316 | 0.9 | 2.6 | 0.00 | 0.01 | 0.00 | 75 | 1015.6 |
| 20260507093503 | 52 | 209 | 0.9 | 1.7 | 0.00 | 0.01 | 0.00 | 75 | 1015.6 |
| 20260507093003 | 52 | 202 | 0.9 | 2.6 | 0.00 | 0.01 | 0.00 | 75 | 1015.6 |
| 20260507092503 | 52 | 198 | 0.9 | 2.6 | 0.00 | 0.01 | 0.00 | 75 | 1015.5 |
| 20260507092003 | 52 | 202 | 0.9 | 4.3 | 0.00 | 0.01 | 0.00 | 74 | 1015.5 |
| 20260507091504 | 52 | 209 | 0.9 | 4.3 | 0.00 | 0.01 | 0.00 | 74 | 1015.5 |
| 20260507091212 | 52 | 214 | 0.9 | 2.6 | 0.00 | 0.01 | 0.00 | 74 | 1015.4 |
| 20260507090505 | 52 | 210 | 0.9 | 3.5 | 0.00 | 0.01 | 0.00 | 74 | 1015.4 |
| 20260507090005 | 52 | 193 | 1.7 | 4.3 | 0.00 | 0.01 | 0.00 | 74 | 1015.4 |
| 20260507085505 | 52 | 171 | 0.9 | 4.3 | 0.00 | 0.01 | 0.00 | 74 | 1015.3 |
| 20260507085003 | 52 | 164 | 0.9 | 2.6 | 0.00 | 0.01 | 0.00 | 74 | 1015.3 |
| 20260507084504 | 53 | 206 | 1.7 | 4.3 | 0.00 | 0.01 | 0.00 | 74 | 1015.3 |
| 20260507084215 | 53 | 211 | 1.7 | 4.3 | 0.00 | 0.01 | 0.00 | 74 | 1015.5 |
| 20260507083713 | 53 | 198 | 2.6 | 5.2 | 0.00 | 0.01 | 0.00 | 76 | 1015.5 |
| 20260507083005 | 50 | 167 | 1.7 | 4.3 | 0.00 | 0.01 | 0.00 | 79 | 1015.5 |
| 20260507082504 | 50 | 155 | 0.9 | 4.3 | 0.00 | 0.01 | 0.00 | 79 | 1015.5 |
| 20260507082005 | 50 | 156 | 1.7 | 5.2 | 0.00 | 0.01 | 0.00 | 79 | 1015.5 |
| 20260507081505 | 50 | 169 | 1.7 | 5.2 | 0.00 | 0.01 | 0.00 | 80 | 1015.5 |
| 20260507081004 | 50 | 182 | 1.7 | 4.3 | 0.00 | 0.01 | 0.00 | 79 | 1015.5 |
| 20260507080503 | 50 | 155 | 1.7 | 4.3 | 0.00 | 0.01 | 0.00 | 80 | 1015.5 |
| 20260507080005 | 50 | 145 | 1.7 | 4.3 | 0.00 | 0.01 | 0.00 | 80 | 1015.5 |
| 20260507075504 | 50 | 137 | 1.7 | 4.3 | 0.00 | 0.01 | 0.00 | 80 | 1015.3 |
| 20260507075003 | 50 | 145 | 1.7 | 4.3 | 0.00 | 0.01 | 0.00 | 81 | 1015.3 |
| 20260507074503 | 49 | 162 | 1.7 | 4.3 | 0.00 | 0.01 | 0.00 | 82 | 1015.3 |
| 20260507074003 | 49 | 157 | 1.7 | 5.2 | 0.00 | 0.01 | 0.00 | 83 | 1015.3 |
| 20260507073505 | 49 | 162 | 1.7 | 5.2 | 0.00 | 0.01 | 0.00 | 84 | 1015.3 |
| 20260507073003 | 49 | 168 | 1.7 | 4.3 | 0.00 | 0.01 | 0.00 | 85 | 1015.3 |
| 20260507072504 | 49 | 139 | 0.9 | 2.6 | 0.00 | 0.01 | 0.00 | 86 | 1015.2 |
| 20260507072004 | 49 | 96 | 0.9 | 2.6 | 0.00 | 0.01 | 0.00 | 86 | 1015.2 |
| 20260507071504 | 48 | 87 | 1.7 | 4.3 | 0.00 | 0.01 | 0.00 | 87 | 1015.2 |
| 20260507071004 | 48 | 85 | 1.7 | 4.3 | 0.00 | 0.01 | 0.00 | 87 | 1015.2 |
| 20260507070717 | 48 | 87 | 1.7 | 4.3 | 0.00 | 0.01 | 0.00 | 88 | 1015.2 |
| 20260507070006 | 48 | 103 | 1.7 | 3.5 | 0.00 | 0.01 | 0.00 | 89 | 1015.2 |
| 20260507065712 | 48 | 110 | 0.9 | 3.5 | 0.00 | 0.01 | 0.00 | 89 | 1015.2 |
| 20260507065004 | 47 | 106 | 0.9 | 2.6 | 0.00 | 0.01 | 0.00 | 89 | 1015.2 |
| 20260507064504 | 47 | 121 | 1.7 | 4.3 | 0.00 | 0.01 | 0.00 | 90 | 1015.2 |
| 20260507064003 | 47 | 129 | 1.7 | 4.3 | 0.00 | 0.01 | 0.00 | 90 | 1015.1 |
| 20260507063503 | 47 | 123 | 1.7 | 4.3 | 0.00 | 0.01 | 0.00 | 91 | 1015.1 |
| 20260507063004 | 47 | 137 | 0.9 | 4.3 | 0.00 | 0.01 | 0.00 | 92 | 1015.1 |
| 20260507062504 | 47 | 124 | 0.9 | 4.3 | 0.00 | 0.01 | 0.00 | 92 | 1015.0 |
| 20260507062004 | 47 | 100 | 0.9 | 4.3 | 0.00 | 0.01 | 0.00 | 92 | 1015.0 |
| 20260507061503 | 46 | 86 | 0.9 | 4.3 | 0.00 | 0.01 | 0.00 | 92 | 1015.0 |
| 20260507061003 | 46 | 46 | 0.9 | 2.6 | 0.00 | 0.01 | 0.00 | 93 | 1015.0 |
| 20260507060504 | 46 | 10 | 0.9 | 2.6 | 0.00 | 0.01 | 0.00 | 93 | 1015.0 |
| 20260507060004 | 45 | 1 | 0.9 | 2.6 | 0.00 | 0.01 | 0.00 | 93 | 1015.0 |
| 20260507055503 | 44 | 1 | 0.9 | 2.6 | 0.00 | 0.01 | 0.00 | 93 | 1014.9 |
| 20260507055004 | 44 | 1 | 0.9 | 2.6 | 0.00 | 0.01 | 0.00 | 92 | 1014.9 |
| 20260507054504 | 44 | 1 | 0.9 | 2.6 | 0.00 | 0.01 | 0.00 | 92 | 1014.9 |
| 20260507054004 | 43 | 10 | 1.7 | 2.6 | 0.00 | 0.01 | 0.00 | 92 | 1014.9 |
| 20260507053503 | 43 | 43 | 0.9 | 2.6 | 0.00 | 0.01 | 0.00 | 92 | 1014.9 |
| 20260507053218 | 43 | 74 | 0.9 | 1.7 | 0.00 | 0.01 | 0.00 | 92 | 1014.9 |
| 20260507052503 | 43 | 95 | 0.9 | 1.7 | 0.00 | 0.01 | 0.00 | 91 | 1014.8 |
| 20260507052003 | 43 | 95 | 0.0 | 1.7 | 0.00 | 0.01 | 0.00 | 91 | 1014.8 |
| 20260507051503 | 43 | 0 | 0.0 | 0.0 | 0.00 | 0.01 | 0.00 | 91 | 1014.8 |
| 20260507051004 | 43 | 0 | 0.0 | 0.0 | 0.00 | 0.01 | 0.00 | 91 | 1014.7 |
| 20260507050504 | 43 | 0 | 0.0 | 0.0 | 0.00 | 0.01 | 0.00 | 91 | 1014.7 |
| 20260507050005 | 44 | 0 | 0.0 | 0.0 | 0.00 | 0.01 | 0.00 | 91 | 1014.7 |
| 20260507045504 | 44 | 0 | 0.0 | 0.0 | 0.00 | 0.01 | 0.00 | 91 | 1014.7 |
| 20260507045005 | 44 | 0 | 0.0 | 0.0 | 0.00 | 0.01 | 0.00 | 91 | 1014.7 |
| 20260507044715 | 44 | 0 | 0.0 | 0.0 | 0.00 | 0.01 | 0.00 | 91 | 1014.7 |
| 20260507044213 | 44 | 0 | 0.0 | 0.0 | 0.00 | 0.01 | 0.00 | 91 | 1014.7 |
| 20260507043716 | 44 | 0 | 0.0 | 0.0 | 0.00 | 0.01 | 0.00 | 91 | 1014.7 |
| 20260507043003 | 45 | 0 | 0.0 | 0.9 | 0.00 | 0.01 | 0.00 | 91 | 1014.7 |
| 20260507042503 | 45 | 95 | 0.0 | 0.9 | 0.00 | 0.01 | 0.00 | 91 | 1014.6 |
| 20260507042003 | 45 | 95 | 0.0 | 1.7 | 0.00 | 0.01 | 0.00 | 91 | 1014.6 |
| 20260507041504 | 45 | 95 | 0.9 | 1.7 | 0.00 | 0.01 | 0.00 | 91 | 1014.6 |
| 20260507041003 | 46 | 91 | 0.9 | 1.7 | 0.00 | 0.01 | 0.00 | 91 | 1014.6 |
| 20260507040713 | 46 | 88 | 0.9 | 1.7 | 0.00 | 0.01 | 0.00 | 91 | 1014.6 |
| 20260507040217 | 46 | 82 | 0.9 | 2.6 | 0.00 | 0.01 | 0.00 | 91 | 1014.6 |
| 20260507035504 | 46 | 81 | 0.9 | 1.7 | 0.00 | 0.01 | 0.00 | 91 | 1014.6 |
| 20260507035212 | 46 | 79 | 0.9 | 3.5 | 0.00 | 0.01 | 0.00 | 91 | 1014.6 |
| 20260507034504 | 46 | 80 | 1.7 | 3.5 | 0.00 | 0.01 | 0.00 | 91 | 1014.6 |
| 20260507034004 | 46 | 78 | 1.7 | 3.5 | 0.00 | 0.01 | 0.00 | 91 | 1014.5 |
| 20260507033504 | 46 | 77 | 2.6 | 4.3 | 0.00 | 0.01 | 0.00 | 91 | 1014.5 |
| 20260507033004 | 46 | 78 | 1.7 | 4.3 | 0.00 | 0.01 | 0.00 | 91 | 1014.5 |
| 20260507032503 | 46 | 76 | 1.7 | 2.6 | 0.00 | 0.01 | 0.00 | 91 | 1014.6 |
| 20260507032004 | 46 | 74 | 1.7 | 4.3 | 0.00 | 0.01 | 0.00 | 91 | 1014.6 |
| 20260507031504 | 46 | 75 | 0.9 | 4.3 | 0.00 | 0.01 | 0.00 | 91 | 1014.6 |
| 20260507031005 | 46 | 76 | 0.9 | 2.6 | 0.00 | 0.01 | 0.00 | 91 | 1014.5 |
| 20260507030504 | 46 | 79 | 1.7 | 3.5 | 0.00 | 0.01 | 0.00 | 91 | 1014.5 |
| 20260507030004 | 46 | 77 | 1.7 | 4.3 | 0.00 | 0.01 | 0.00 | 91 | 1014.5 |
| 20260507025503 | 46 | 72 | 1.7 | 4.3 | 0.00 | 0.01 | 0.00 | 91 | 1014.4 |
| 20260507025213 | 46 | 70 | 1.7 | 3.5 | 0.00 | 0.01 | 0.00 | 91 | 1014.4 |
| 20260507024503 | 46 | 72 | 1.7 | 5.2 | 0.00 | 0.01 | 0.00 | 91 | 1014.4 |
| 20260507024003 | 46 | 75 | 1.7 | 5.2 | 0.00 | 0.01 | 0.00 | 91 | 1014.4 |
| 20260507023505 | 46 | 81 | 1.7 | 4.3 | 0.00 | 0.01 | 0.00 | 91 | 1014.4 |
| 20260507023003 | 46 | 74 | 2.6 | 7.8 | 0.00 | 0.01 | 0.00 | 91 | 1014.4 |
| 20260507022713 | 46 | 70 | 2.6 | 7.8 | 0.00 | 0.01 | 0.00 | 91 | 1014.4 |
| 20260507022003 | 46 | 59 | 1.7 | 4.3 | 0.00 | 0.01 | 0.00 | 91 | 1014.4 |
| 20260507021503 | 46 | 54 | 1.7 | 5.2 | 0.00 | 0.01 | 0.00 | 90 | 1014.4 |
| 20260507021003 | 46 | 44 | 1.7 | 5.2 | 0.00 | 0.01 | 0.00 | 90 | 1014.2 |
| 20260507020715 | 46 | 48 | 1.7 | 5.2 | 0.00 | 0.01 | 0.00 | 90 | 1014.2 |
| 20260507020004 | 47 | 46 | 1.7 | 5.2 | 0.00 | 0.01 | 0.00 | 90 | 1014.2 |
| 20260507015503 | 47 | 33 | 1.7 | 5.2 | 0.00 | 0.01 | 0.00 | 90 | 1014.2 |
| 20260507015006 | 47 | 30 | 1.7 | 5.2 | 0.00 | 0.01 | 0.00 | 91 | 1014.2 |
| 20260507014503 | 47 | 32 | 1.7 | 4.3 | 0.00 | 0.01 | 0.00 | 90 | 1014.2 |
| 20260507014214 | 47 | 34 | 1.7 | 3.5 | 0.00 | 0.01 | 0.00 | 90 | 1014.2 |
| 20260507013504 | 47 | 30 | 1.7 | 4.3 | 0.00 | 0.01 | 0.00 | 90 | 1014.2 |
| 20260507013003 | 47 | 23 | 1.7 | 4.3 | 0.00 | 0.01 | 0.00 | 90 | 1014.2 |
| 20260507012718 | 47 | 16 | 1.7 | 5.2 | 0.00 | 0.01 | 0.00 | 90 | 1014.2 |
| 20260507012004 | 47 | 7 | 1.7 | 5.2 | 0.00 | 0.01 | 0.00 | 90 | 1014.2 |
| 20260507011503 | 47 | 5 | 2.6 | 5.2 | 0.00 | 0.01 | 0.00 | 90 | 1014.2 |
| 20260507011003 | 46 | 5 | 1.7 | 5.2 | 0.00 | 0.01 | 0.00 | 90 | 1014.3 |
| 20260507010715 | 46 | 3 | 1.7 | 5.2 | 0.00 | 0.01 | 0.00 | 90 | 1014.3 |
| 20260507010004 | 46 | 341 | 1.7 | 5.2 | 0.00 | 0.01 | 0.00 | 90 | 1014.3 |
| 20260507005504 | 46 | 325 | 2.6 | 5.2 | 0.00 | 0.01 | 0.00 | 90 | 1014.4 |
| 20260507005003 | 46 | 319 | 2.6 | 5.2 | 0.00 | 0.01 | 0.00 | 90 | 1014.4 |
| 20260507004717 | 46 | 320 | 2.6 | 4.3 | 0.00 | 0.01 | 0.00 | 90 | 1014.4 |
| 20260507004215 | 46 | 320 | 2.6 | 5.2 | 0.00 | 0.01 | 0.00 | 90 | 1014.4 |
| 20260507003503 | 46 | 319 | 2.6 | 5.2 | 0.00 | 0.01 | 0.00 | 90 | 1014.4 |
| 20260507003003 | 46 | 315 | 2.6 | 5.2 | 0.00 | 0.01 | 0.00 | 89 | 1014.4 |
| 20260507002503 | 46 | 320 | 3.5 | 6.1 | 0.00 | 0.01 | 0.00 | 89 | 1014.3 |
| 20260507002003 | 46 | 324 | 4.3 | 7.8 | 0.00 | 0.01 | 0.00 | 89 | 1014.3 |
| 20260507001503 | 46 | 324 | 3.5 | 7.8 | 0.00 | 0.01 | 0.00 | 89 | 1014.3 |
| 20260507001213 | 46 | 320 | 3.5 | 6.1 | 0.00 | 0.01 | 0.00 | 89 | 1014.4 |
| 20260507000503 | 46 | 321 | 2.6 | 5.2 | 0.00 | 0.01 | 0.00 | 89 | 1014.4 |
| 20260507000015 | 46 | 313 | 2.6 | 6.1 | 0.00 | 0.01 | 0.00 | 89 | 1014.4 |
| 20260506235717 | 46 | 311 | 2.6 | 6.1 | 0.00 | 0.01 | 0.01 | 89 | 1014.4 |
| 20260506235003 | 46 | 321 | 2.6 | 7.8 | 0.00 | 0.01 | 0.01 | 89 | 1014.4 |
| 20260506234505 | 46 | 318 | 2.6 | 7.8 | 0.00 | 0.01 | 0.01 | 89 | 1014.4 |
| 20260506234005 | 46 | 322 | 2.6 | 5.2 | 0.00 | 0.01 | 0.01 | 89 | 1014.4 |
| 20260506233503 | 46 | 323 | 2.6 | 6.1 | 0.00 | 0.01 | 0.01 | 89 | 1014.4 |
| 20260506233217 | 46 | 322 | 2.6 | 6.1 | 0.00 | 0.01 | 0.01 | 89 | 1014.4 |
| 20260506232504 | 46 | 321 | 2.6 | 5.2 | 0.00 | 0.01 | 0.01 | 89 | 1014.4 |
| 20260506232003 | 46 | 325 | 2.6 | 5.2 | 0.00 | 0.01 | 0.01 | 89 | 1014.4 |
| 20260506231504 | 47 | 324 | 3.5 | 6.1 | 0.00 | 0.01 | 0.01 | 89 | 1014.4 |
| 20260506231004 | 47 | 322 | 2.6 | 6.1 | 0.00 | 0.01 | 0.01 | 89 | 1014.3 |
| 20260506230503 | 47 | 326 | 1.7 | 4.3 | 0.00 | 0.01 | 0.01 | 89 | 1014.3 |
| 20260506230003 | 47 | 334 | 1.7 | 4.3 | 0.00 | 0.01 | 0.01 | 89 | 1014.3 |
| 20260506225503 | 47 | 337 | 2.6 | 4.3 | 0.00 | 0.01 | 0.01 | 89 | 1014.3 |
| 20260506225215 | 47 | 343 | 2.6 | 5.2 | 0.00 | 0.01 | 0.01 | 89 | 1014.3 |
| 20260506224503 | 47 | 352 | 2.6 | 5.2 | 0.00 | 0.01 | 0.01 | 88 | 1014.3 |
| 20260506224003 | 47 | 346 | 2.6 | 5.2 | 0.00 | 0.01 | 0.01 | 88 | 1014.2 |
| 20260506223714 | 47 | 344 | 2.6 | 5.2 | 0.00 | 0.01 | 0.01 | 88 | 1014.2 |
| 20260506223003 | 47 | 355 | 2.6 | 6.1 | 0.00 | 0.01 | 0.01 | 88 | 1014.2 |
| 20260506222503 | 47 | 353 | 2.6 | 6.1 | 0.00 | 0.01 | 0.01 | 88 | 1014.3 |
| 20260506222005 | 47 | 348 | 2.6 | 5.2 | 0.00 | 0.01 | 0.01 | 88 | 1014.3 |
| 20260506221505 | 47 | 350 | 2.6 | 5.2 | 0.00 | 0.01 | 0.01 | 88 | 1014.3 |
| 20260506221003 | 47 | 352 | 2.6 | 5.2 | 0.00 | 0.01 | 0.01 | 88 | 1014.3 |
| 20260506220504 | 47 | 351 | 2.6 | 5.2 | 0.00 | 0.01 | 0.01 | 88 | 1014.3 |
| 20260506220003 | 47 | 349 | 2.6 | 5.2 | 0.00 | 0.01 | 0.01 | 88 | 1014.3 |
| 20260506215503 | 47 | 353 | 2.6 | 5.2 | 0.00 | 0.01 | 0.01 | 87 | 1014.2 |
| 20260506215003 | 47 | 354 | 2.6 | 6.1 | 0.00 | 0.01 | 0.01 | 87 | 1014.2 |
| 20260506214714 | 47 | 353 | 2.6 | 6.1 | 0.00 | 0.01 | 0.01 | 87 | 1014.2 |
| 20260506214217 | 47 | 357 | 2.6 | 5.2 | 0.00 | 0.01 | 0.01 | 87 | 1014.2 |
| 20260506213715 | 47 | 356 | 2.6 | 6.1 | 0.00 | 0.01 | 0.01 | 87 | 1014.2 |
| 20260506213005 | 47 | 356 | 4.3 | 7.8 | 0.00 | 0.01 | 0.01 | 87 | 1014.2 |
| 20260506212504 | 47 | 355 | 4.3 | 7.8 | 0.00 | 0.01 | 0.01 | 87 | 1014.2 |
| 20260506212003 | 47 | 353 | 3.5 | 6.1 | 0.00 | 0.01 | 0.01 | 86 | 1014.2 |
| 20260506211717 | 47 | 352 | 3.5 | 6.1 | 0.00 | 0.01 | 0.01 | 86 | 1014.2 |
| 20260506211003 | 47 | 351 | 4.3 | 7.8 | 0.00 | 0.01 | 0.01 | 86 | 1014.1 |
| 20260506210504 | 47 | 351 | 5.2 | 7.8 | 0.00 | 0.01 | 0.01 | 86 | 1014.1 |
| 20260506210003 | 47 | 353 | 4.3 | 7.8 | 0.00 | 0.01 | 0.01 | 86 | 1014.1 |
| 20260506205503 | 47 | 356 | 4.3 | 7.8 | 0.00 | 0.01 | 0.01 | 86 | 1014.0 |
| 20260506205003 | 47 | 356 | 4.3 | 7.8 | 0.00 | 0.01 | 0.01 | 85 | 1014.0 |
| 20260506204504 | 48 | 359 | 3.5 | 7.8 | 0.00 | 0.01 | 0.01 | 85 | 1014.0 |
| 20260506204213 | 48 | 360 | 3.5 | 7.8 | 0.00 | 0.01 | 0.01 | 85 | 1013.8 |
| 20260506203503 | 48 | 360 | 3.5 | 7.8 | 0.00 | 0.01 | 0.01 | 85 | 1013.8 |
| 20260506203004 | 48 | 7 | 3.5 | 7.8 | 0.00 | 0.01 | 0.01 | 84 | 1013.8 |
| 20260506202503 | 48 | 7 | 4.3 | 9.6 | 0.00 | 0.01 | 0.01 | 84 | 1013.7 |
| 20260506202215 | 48 | 5 | 4.3 | 10.4 | 0.00 | 0.01 | 0.01 | 84 | 1013.7 |
| 20260506201504 | 48 | 5 | 5.2 | 11.3 | 0.00 | 0.01 | 0.01 | 83 | 1013.7 |
| 20260506201004 | 48 | 2 | 5.2 | 11.3 | 0.00 | 0.01 | 0.01 | 83 | 1013.6 |
| 20260506200504 | 48 | 2 | 5.2 | 11.3 | 0.00 | 0.01 | 0.01 | 83 | 1013.6 |
| 20260506200003 | 48 | 4 | 4.3 | 10.4 | 0.00 | 0.01 | 0.01 | 83 | 1013.6 |
| 20260506195503 | 48 | 7 | 3.5 | 8.7 | 0.00 | 0.01 | 0.01 | 82 | 1013.6 |
| 20260506195003 | 48 | 5 | 4.3 | 9.6 | 0.00 | 0.01 | 0.01 | 82 | 1013.6 |
| 20260506194503 | 48 | 1 | 5.2 | 9.6 | 0.00 | 0.01 | 0.01 | 81 | 1013.6 |
| 20260506194003 | 48 | 1 | 6.1 | 11.3 | 0.00 | 0.01 | 0.01 | 81 | 1013.6 |
| 20260506193503 | 49 | 359 | 7.0 | 11.3 | 0.00 | 0.01 | 0.01 | 80 | 1013.6 |
| 20260506193003 | 49 | 359 | 7.0 | 11.3 | 0.00 | 0.01 | 0.01 | 80 | 1013.6 |
| 20260506192503 | 49 | 360 | 6.1 | 11.3 | 0.00 | 0.01 | 0.01 | 79 | 1013.5 |
| 20260506192215 | 49 | 359 | 6.1 | 12.2 | 0.00 | 0.01 | 0.01 | 78 | 1013.5 |
| 20260506191504 | 50 | 359 | 7.0 | 12.2 | 0.00 | 0.01 | 0.01 | 77 | 1013.5 |
| 20260506191003 | 50 | 2 | 6.1 | 12.2 | 0.00 | 0.01 | 0.01 | 77 | 1013.3 |
| 20260506190504 | 50 | 7 | 5.2 | 12.2 | 0.00 | 0.01 | 0.01 | 76 | 1013.3 |
| 20260506190217 | 50 | 4 | 5.2 | 11.3 | 0.00 | 0.01 | 0.01 | 75 | 1013.3 |
| 20260506185505 | 51 | 7 | 5.2 | 11.3 | 0.00 | 0.01 | 0.01 | 74 | 1013.3 |
| 20260506185218 | 51 | 12 | 5.2 | 11.3 | 0.00 | 0.01 | 0.01 | 74 | 1013.3 |
| 20260506184504 | 51 | 360 | 6.1 | 12.2 | 0.00 | 0.01 | 0.01 | 73 | 1013.3 |
| 20260506184214 | 51 | 358 | 6.1 | 12.2 | 0.00 | 0.01 | 0.01 | 73 | 1013.1 |
| 20260506183504 | 52 | 16 | 5.2 | 11.3 | 0.00 | 0.01 | 0.01 | 72 | 1013.1 |
| 20260506183005 | 52 | 16 | 5.2 | 11.3 | 0.00 | 0.01 | 0.01 | 71 | 1013.1 |
| 20260506182713 | 52 | 16 | 5.2 | 11.3 | 0.00 | 0.01 | 0.01 | 71 | 1013.0 |
| 20260506182216 | 52 | 7 | 5.2 | 11.3 | 0.00 | 0.01 | 0.01 | 71 | 1013.0 |
| 20260506181503 | 52 | 1 | 6.1 | 13.0 | 0.00 | 0.01 | 0.01 | 71 | 1013.0 |
| 20260506181004 | 52 | 2 | 5.2 | 13.0 | 0.00 | 0.01 | 0.01 | 71 | 1012.8 |
| 20260506180504 | 52 | 8 | 5.2 | 10.4 | 0.00 | 0.01 | 0.01 | 70 | 1012.8 |
| 20260506180005 | 52 | 7 | 6.1 | 13.0 | 0.00 | 0.01 | 0.01 | 69 | 1012.8 |
| 20260506175503 | 53 | 360 | 6.1 | 13.0 | 0.00 | 0.01 | 0.01 | 69 | 1012.6 |
| 20260506175004 | 53 | 356 | 7.0 | 12.2 | 0.00 | 0.01 | 0.01 | 68 | 1012.6 |
| 20260506174717 | 53 | 358 | 6.1 | 12.2 | 0.00 | 0.01 | 0.01 | 68 | 1012.6 |
| 20260506174214 | 53 | 5 | 5.2 | 12.2 | 0.00 | 0.01 | 0.01 | 67 | 1012.5 |
| 20260506173504 | 54 | 5 | 6.1 | 13.0 | 0.00 | 0.01 | 0.01 | 66 | 1012.5 |
| 20260506173004 | 54 | 1 | 6.1 | 13.0 | 0.00 | 0.01 | 0.01 | 66 | 1012.5 |
| 20260506172503 | 54 | 1 | 5.2 | 12.2 | 0.00 | 0.01 | 0.01 | 66 | 1012.4 |
| 20260506172004 | 54 | 360 | 4.3 | 11.3 | 0.00 | 0.01 | 0.01 | 67 | 1012.4 |
| 20260506171504 | 53 | 8 | 4.3 | 11.3 | 0.00 | 0.01 | 0.01 | 67 | 1012.4 |
| 20260506171004 | 53 | 22 | 4.3 | 10.4 | 0.00 | 0.01 | 0.01 | 67 | 1012.5 |
| 20260506170504 | 53 | 27 | 4.3 | 10.4 | 0.00 | 0.01 | 0.01 | 66 | 1012.5 |
| 20260506170003 | 54 | 16 | 4.3 | 8.7 | 0.00 | 0.01 | 0.01 | 65 | 1012.5 |
| 20260506165716 | 54 | 20 | 4.3 | 9.6 | 0.00 | 0.01 | 0.01 | 65 | 1012.4 |
| 20260506165003 | 54 | 25 | 3.5 | 9.6 | 0.00 | 0.01 | 0.01 | 65 | 1012.4 |
| 20260506164717 | 54 | 22 | 3.5 | 10.4 | 0.00 | 0.01 | 0.01 | 64 | 1012.4 |
| 20260506164004 | 54 | 23 | 4.3 | 10.4 | 0.00 | 0.01 | 0.01 | 64 | 1012.3 |
| 20260506163503 | 54 | 23 | 5.2 | 10.4 | 0.00 | 0.01 | 0.01 | 63 | 1012.3 |
| 20260506163216 | 54 | 16 | 5.2 | 12.2 | 0.00 | 0.01 | 0.01 | 63 | 1012.3 |
| 20260506162503 | 54 | 6 | 6.1 | 12.2 | 0.00 | 0.01 | 0.01 | 62 | 1012.2 |
| 20260506162004 | 54 | 357 | 6.1 | 13.0 | 0.00 | 0.01 | 0.01 | 62 | 1012.2 |
| 20260506161504 | 54 | 351 | 7.0 | 13.0 | 0.00 | 0.01 | 0.01 | 61 | 1012.2 |
| 20260506161003 | 54 | 344 | 6.1 | 12.2 | 0.00 | 0.01 | 0.01 | 61 | 1012.3 |
| 20260506160716 | 54 | 340 | 7.0 | 13.0 | 0.00 | 0.01 | 0.01 | 60 | 1012.3 |
| 20260506160003 | 55 | 341 | 6.1 | 13.0 | 0.00 | 0.01 | 0.01 | 60 | 1012.3 |
| 20260506155504 | 55 | 345 | 6.1 | 13.0 | 0.00 | 0.01 | 0.01 | 60 | 1012.4 |
| 20260506155003 | 55 | 349 | 6.1 | 13.0 | 0.00 | 0.01 | 0.01 | 60 | 1012.4 |
| 20260506154503 | 55 | 349 | 6.1 | 13.0 | 0.00 | 0.01 | 0.01 | 58 | 1012.4 |
| 20260506154216 | 55 | 350 | 6.1 | 13.0 | 0.00 | 0.01 | 0.01 | 58 | 1012.4 |
| 20260506153503 | 55 | 358 | 7.0 | 12.2 | 0.00 | 0.01 | 0.01 | 57 | 1012.4 |
| 20260506153217 | 55 | 1 | 6.1 | 12.2 | 0.00 | 0.01 | 0.01 | 57 | 1012.4 |
| 20260506152504 | 55 | 2 | 5.2 | 12.2 | 0.00 | 0.01 | 0.01 | 58 | 1012.3 |
| 20260506152003 | 55 | 351 | 6.1 | 12.2 | 0.00 | 0.01 | 0.01 | 57 | 1012.3 |
| 20260506151503 | 56 | 340 | 6.1 | 10.4 | 0.00 | 0.01 | 0.01 | 56 | 1012.3 |
| 20260506151219 | 56 | 336 | 5.2 | 10.4 | 0.00 | 0.01 | 0.01 | 56 | 1012.2 |
| 20260506150503 | 55 | 346 | 6.1 | 12.2 | 0.00 | 0.01 | 0.01 | 56 | 1012.2 |
| 20260506150004 | 56 | 344 | 6.1 | 12.2 | 0.00 | 0.01 | 0.01 | 56 | 1012.2 |
| 20260506145504 | 56 | 334 | 6.1 | 11.3 | 0.00 | 0.01 | 0.01 | 56 | 1012.2 |
| 20260506145215 | 56 | 330 | 6.1 | 11.3 | 0.00 | 0.01 | 0.01 | 56 | 1012.2 |
| 20260506144503 | 56 | 348 | 6.1 | 10.4 | 0.00 | 0.01 | 0.01 | 56 | 1012.2 |
| 20260506144216 | 56 | 352 | 5.2 | 10.4 | 0.00 | 0.01 | 0.01 | 55 | 1012.2 |
| 20260506143503 | 56 | 349 | 6.1 | 11.3 | 0.00 | 0.01 | 0.01 | 56 | 1012.2 |
| 20260506143003 | 56 | 3 | 5.2 | 11.3 | 0.00 | 0.01 | 0.01 | 57 | 1012.2 |
| 20260506142715 | 56 | 5 | 4.3 | 10.4 | 0.00 | 0.01 | 0.01 | 59 | 1012.1 |
| 20260506142218 | 56 | 360 | 4.3 | 9.6 | 0.00 | 0.01 | 0.01 | 58 | 1012.1 |
| 20260506141504 | 55 | 354 | 5.2 | 10.4 | 0.00 | 0.01 | 0.01 | 60 | 1012.1 |
| 20260506141004 | 55 | 357 | 5.2 | 11.3 | 0.00 | 0.01 | 0.01 | 60 | 1012.3 |
| 20260506140503 | 55 | 355 | 6.1 | 11.3 | 0.00 | 0.01 | 0.01 | 60 | 1012.3 |
| 20260506140004 | 55 | 356 | 5.2 | 10.4 | 0.00 | 0.01 | 0.01 | 60 | 1012.3 |
| 20260506135504 | 55 | 2 | 4.3 | 10.4 | 0.00 | 0.01 | 0.01 | 59 | 1012.5 |
| 20260506135004 | 55 | 10 | 4.3 | 10.4 | 0.00 | 0.01 | 0.01 | 61 | 1012.5 |
| 20260506134503 | 54 | 14 | 5.2 | 10.4 | 0.00 | 0.01 | 0.01 | 61 | 1012.5 |
| 20260506134005 | 54 | 22 | 4.3 | 10.4 | 0.00 | 0.01 | 0.01 | 62 | 1012.5 |
| 20260506133503 | 54 | 22 | 4.3 | 10.4 | 0.00 | 0.01 | 0.01 | 62 | 1012.5 |
| 20260506133003 | 54 | 14 | 5.2 | 11.3 | 0.00 | 0.01 | 0.01 | 63 | 1012.5 |
| 20260506132503 | 53 | 6 | 6.1 | 11.3 | 0.00 | 0.01 | 0.01 | 64 | 1012.5 |
| 20260506132005 | 53 | 359 | 6.1 | 14.8 | 0.00 | 0.01 | 0.01 | 64 | 1012.5 |
| 20260506131717 | 54 | 358 | 6.1 | 14.8 | 0.00 | 0.01 | 0.01 | 65 | 1012.5 |
| 20260506131003 | 54 | 20 | 3.5 | 10.4 | 0.00 | 0.01 | 0.01 | 66 | 1012.6 |
| 20260506130503 | 54 | 9 | 4.3 | 9.6 | 0.00 | 0.01 | 0.01 | 66 | 1012.6 |
| 20260506130005 | 54 | 357 | 6.1 | 10.4 | 0.00 | 0.01 | 0.01 | 65 | 1012.6 |
| 20260506125504 | 54 | 355 | 7.0 | 12.2 | 0.00 | 0.01 | 0.01 | 66 | 1012.6 |
| 20260506125003 | 54 | 1 | 6.1 | 12.2 | 0.00 | 0.01 | 0.01 | 65 | 1012.6 |
| 20260506124715 | 54 | 3 | 6.1 | 12.2 | 0.00 | 0.01 | 0.01 | 67 | 1012.6 |
| 20260506124004 | 53 | 6 | 5.2 | 11.3 | 0.00 | 0.01 | 0.01 | 67 | 1012.6 |
| 20260506123504 | 52 | 13 | 5.2 | 13.0 | 0.00 | 0.01 | 0.01 | 70 | 1012.6 |
| 20260506123003 | 52 | 16 | 4.3 | 13.0 | 0.00 | 0.01 | 0.01 | 71 | 1012.6 |
| 20260506122503 | 51 | 7 | 4.3 | 10.4 | 0.00 | 0.01 | 0.01 | 74 | 1012.7 |
| 20260506122003 | 51 | 359 | 5.2 | 10.4 | 0.01 | 0.01 | 0.01 | 75 | 1012.7 |
| 20260506121503 | 50 | 358 | 4.3 | 10.4 | 0.01 | 0.01 | 0.01 | 77 | 1012.7 |
| 20260506121003 | 51 | 8 | 4.3 | 10.4 | 0.01 | 0.01 | 0.01 | 79 | 1012.7 |
| 20260506120503 | 51 | 19 | 4.3 | 10.4 | 0.01 | 0.01 | 0.01 | 78 | 1012.7 |
| 20260506120003 | 51 | 16 | 3.5 | 10.4 | 0.01 | 0.01 | 0.01 | 79 | 1012.7 |
| 20260506115715 | 51 | 20 | 3.5 | 10.4 | 0.01 | 0.01 | 0.01 | 80 | 1012.7 |
| 20260506115212 | 52 | 34 | 2.6 | 6.1 | 0.01 | 0.01 | 0.01 | 81 | 1012.7 |
| 20260506114504 | 51 | 32 | 2.6 | 8.7 | 0.01 | 0.01 | 0.01 | 82 | 1012.7 |
| 20260506114003 | 51 | 33 | 2.6 | 6.1 | 0.01 | 0.01 | 0.01 | 82 | 1012.8 |
| 20260506113504 | 50 | 25 | 2.6 | 6.1 | 0.01 | 0.01 | 0.01 | 83 | 1012.8 |
| 20260506113003 | 50 | 10 | 3.5 | 7.8 | 0.01 | 0.01 | 0.01 | 82 | 1012.8 |
| 20260506112503 | 50 | 12 | 5.2 | 11.3 | 0.01 | 0.01 | 0.01 | 80 | 1012.9 |
| 20260506112004 | 50 | 14 | 6.1 | 11.3 | 0.00 | 0.00 | 0.00 | 78 | 1012.9 |
| 20260506111503 | 50 | 15 | 5.2 | 10.4 | 0.00 | 0.00 | 0.00 | 77 | 1012.9 |
| 20260506111003 | 50 | 18 | 3.5 | 9.6 | 0.00 | 0.00 | 0.00 | 77 | 1012.7 |
| 20260506110503 | 50 | 11 | 2.6 | 7.8 | 0.00 | 0.00 | 0.00 | 77 | 1012.7 |
| 20260506110003 | 50 | 2 | 4.3 | 11.3 | 0.00 | 0.00 | 0.00 | 76 | 1012.7 |
| 20260506105504 | 50 | 355 | 6.1 | 13.0 | 0.00 | 0.00 | 0.00 | 75 | 1012.7 |
| 20260506105004 | 50 | 354 | 5.2 | 13.0 | 0.00 | 0.00 | 0.00 | 74 | 1012.7 |
| 20260506104503 | 50 | 353 | 5.2 | 13.0 | 0.00 | 0.00 | 0.00 | 74 | 1012.7 |
| 20260506104003 | 50 | 352 | 6.1 | 11.3 | 0.00 | 0.00 | 0.00 | 73 | 1012.8 |
| 20260506103503 | 50 | 355 | 5.2 | 11.3 | 0.00 | 0.00 | 0.00 | 73 | 1012.8 |
| 20260506103004 | 50 | 352 | 4.3 | 9.6 | 0.00 | 0.00 | 0.00 | 74 | 1012.8 |
| 20260506102503 | 50 | 351 | 5.2 | 11.3 | 0.00 | 0.00 | 0.00 | 74 | 1012.8 |
| 20260506102003 | 50 | 2 | 5.2 | 11.3 | 0.00 | 0.00 | 0.00 | 74 | 1012.8 |
| 20260506101503 | 50 | 12 | 5.2 | 10.4 | 0.00 | 0.00 | 0.00 | 75 | 1012.8 |
| 20260506101003 | 50 | 8 | 6.1 | 10.4 | 0.00 | 0.00 | 0.00 | 76 | 1012.8 |